SL-12 DEB, 41641

Orbit data source: Space-Track

SL-12 DEB, 41641 is space debris in HEO originally from a launch on Thu, 25 Dec 2008 UTC launched from the Tyuratam Missile And Space Complex (TTMTR). Debris objects in space refer to the collection of defunct objects orbiting the Earth. Examples of debris include non-operational satellites, rocket bodies, and fragments generated from explosions, collisions, or faulty payload assembly.

Loading next visibility...
Identifier
41641, 2008-067M
Orbit
HEO
Country
Flag of CISCIS
Related business
Manufacturer
RKKE
Mission
Spacecraft
Bus & Motor
Unknown
Mass
Unknown
Launch date (UTC)
2008-12-25 (17 years ago)
Launch vehicle
Unknown
Launch site
Tyuratam Missile And Space Complex (TTMTR)
Object type
Payload
Rocket body
Debris
Shape & HBR
Unknown shape, 0.6 m
Radar Cross Section
Medium (>0.1 m² and <1 m²)

Expand to show TLE details & history
Last TLE update: 5 days ago

TLE from 5 days ago
0 SL-12 DEB
1 41641U 08067M   25288.13455997 -.00000062  00000-0 -25053-3 0  9993
2 41641  65.0621 221.5228 5582994 296.7578  17.3696  4.29360762144411
Epoch: 2025-10-15T03:13Z
TLE epoch observation values (Epoch: 2025-10-15T03:13:45.981Z)
Latitude
0.00004°
Longitude
149.15319°
Altitude
2,423.194 km
Speed
8.104 km/s
True Right ascension
14h 46m 01s
True Declination
0° 00' 00"
Sunlit
Object was in daylight at epoch
Visualization orbit readout
Latitude
Unknown
Longitude
Unknown
Altitude
Unknown
Speed
Unknown
Apparent Right ascension
Unknown
Apparent Declination
Unknown
Sunlit
N/A
Visualization observer readout
Local Sidereal Time
07:56:41
Azimuth
Unknown
Elevation
Unknown
Doppler factor
Unknown
Orbital elements
Apogee altitude
18,537.627 km
Perigee altitude
684.246 km
Semi-major axis
15,989.074 km
Eccentricity
0.5583
Inclination
65.0621°
RAAN
221.5228°
Arg. of periapsis
296.7578°
True anomaly
63.26323°
Mean anomaly
17.3696°
Eccentric anomaly
36.31279°
Mean motion
1.07352 °/min
Orbital period
335.35 mins
BSTAR
-0.00025053
Loading maneuver chart data...
Computing Atmospheric mass density...
Loading historical data...
Loading historical data...
Loading historical data...
Loading historical data...
Loading historical data...
Loading historical data...
Loading historical data...

Documentation

Showing up to 5 results
|